HULIANWANG DIGUI-84

Last updated on Mon Oct 27 2025 00:02:05 GMT+0000 (Coordinated Universal Time)

1 65819U 25220C 25298.88838920 -.00000121 00000+0 -20739-3 0 9991 2 65819 86.4888 123.1598 0001288 101.2510 258.8785 13.52537739 3877

Satellite not in orbit

HULIANWANG DIGUI-84